This demonstration page uses our WeatherBlox Daily Observations layout. Learn more.

38.89511, -77.03637

Hourly Observations for April 12, 2015

Temp ( °F °C ) Dew Point ( °F °C ) Humidity (%) Winds ( mph kmh ) Pressure ( in mb ) Visibility ( mi km ) Precip ( " mm )
12:52 am 00:52 Clear 54 12 30 -1 41 41 N 7 11 30.27 1025 10 16.09344 0 0
1:52 am 01:52 Clear 52 11 30 -1 44 44 NNW 7 11 30.27 1025 10 16.09344 0 0
2:52 am 02:52 Clear 52 11 32 0 47 47 ENE 8 13 30.27 1025 10 16.09344 0 0
3:52 am 03:52 Clear 52 11 30 -1 44 44 Calm 30.3 1026 10 16.09344 0 0
4:52 am 04:52 Clear 48 9 32 0 54 54 Calm 30.3 1026 10 16.09344 0 0
5:52 am 05:52 Clear 45 7 32 0 61 61 SW 6 9 30.33 1027 10 16.09344 0 0
6:52 am 06:52 Mostly Sunny 46 8 30 -1 53 53 SW 3 6 30.36 1028 10 16.09344 0 0
7:52 am 07:52 Mostly Sunny 52 11 34 1 50 50 Calm 30.39 1029 10 16.09344 0 0
8:52 am 08:52 Mostly Sunny 54 12 36 2 51 51 Calm 30.39 1029 10 16.09344 0 0
9:52 am 09:52 Mostly Sunny 57 14 34 1 41 41 Calm 30.39 1029 10 16.09344 0 0
10:52 am 10:52 Partly Cloudy 63 17 30 -1 30 30 Calm 30.39 1029 10 16.09344 0 0
11:52 am 11:52 Mostly Cloudy 64 18 28 -2 26 26 Calm 30.39 1029 10 16.09344 0 0
12:52 pm 12:52 Mostly Cloudy 64 18 28 -2 26 26 Calm 30.36 1028 10 16.09344 0 0
1:52 pm 13:52 Mostly Cloudy 66 19 25 -4 21 21 ESE 3 6 30.33 1027 10 16.09344 0 0
2:52 pm 14:52 Partly Cloudy 68 20 36 2 30 30 SSE 7 11 30.3 1026 10 16.09344 0 0
3:52 pm 15:52 Partly Cloudy 70 21 37 3 31 31 SSE 9 15 30.27 1025 10 16.09344 0 0
4:52 pm 16:52 Mostly Cloudy 70 21 34 1 27 27 SSE 6 9 30.27 1025 10 16.09344 0 0
5:52 pm 17:52 Mostly Cloudy 70 21 37 3 31 31 S 8 13 30.27 1025 10 16.09344 0 0
6:52 pm 18:52 Mostly Cloudy 66 19 41 5 40 40 S 7 11 30.27 1025 10 16.09344 0 0
7:52 pm 19:52 Mostly Cloudy 64 18 36 2 34 34 ESE 10 17 30.27 1025 10 16.09344 0 0
8:52 pm 20:52 Mostly Cloudy 61 16 36 2 39 39 SSE 10 17 30.3 1026 10 16.09344 0 0
9:52 pm 21:52 Partly Cloudy 57 14 34 1 41 41 S 9 15 30.33 1027 10 16.09344 0 0
10:52 pm 22:52 Mostly Clear 57 14 34 1 41 41 SSE 10 17 30.33 1027 10 16.09344 0 0
11:52 pm 23:52 Mostly Clear 55 13 37 3 51 51 S 7 11 30.33 1027 10 16.09344 0 0

Powered by AerisWeather